Flag for Germany Weather past 2 weeks in Walsrode, Lower Saxony, Germany

Now
61 °F

Scattered clouds.


Feels Like: 61 °F
Forecast: 51 / 59 °F
Wind: 13 mph from Southwest

Location: Fassberg

Current Time: Sep 4, 2015 at 1:18:25 PM

Latest Report: Sep 4, 2015 at 12:20 PM


Visibility: N/A

Pressure: 29.89 "Hg

Humidity: 59%

Dew point: 46 °F

Location of WalsrodeLocation

Historic Weather in Walsrode — Graph

°F

Walsrode temperature yesterday

Maximum temperature yesterday: 63 °F (at 4:20 PM)
Minimum temperature yesterday: 43 °F (at 5:20 AM)
Average temperature yesterday: 53 °F

Past Weeks' High & Low Weather Summary

 TemperatureHumidityPressure
High84 °F (Aug 31, 3:20 PM)100% (Aug 20, 10:20 PM)30.30 "Hg (Aug 20, 10:20 PM)
Low43 °F (Sep 3, 5:20 AM)34% (Aug 22, 5:20 PM)29.62 "Hg (Aug 24, 6:20 PM)
Average62 °F78%29.98 "Hg
* Reported Aug 20 11:20 AM — Sep 4 11:20 AM, Walsrode, Weather by CustomWeather, © 2015

Note: Actual official high and low records may vary slightly from our data, if they occured in-between our weather recording intervals... More about our weather records

Advertising

Walsrode weather history for previous 24 hours

 ConditionsComfort  
Time TempWeatherWind HumidityBarometerVisibility
11:20 AM
Fri, Sep 4
61 °FScattered clouds.15 mph63%29.89 "HgN/A
10:20 AM57 °FScattered clouds.10 mph77%29.92 "HgN/A
9:20 AM54 °FBroken clouds.8 mph88%29.92 "HgN/A
8:20 AM52 °FFog.6 mph88%29.92 "Hg3 mi
7:20 AM50 °FFog.5 mph88%29.89 "Hg3 mi
6:20 AM50 °FFog.5 mph88%29.89 "Hg2 mi
5:20 AM48 °FFog.5 mph94%29.92 "Hg2 mi
4:20 AM50 °FPartly cloudy.6 mph88%29.92 "Hg4 mi
3:53 AM50 °FPartly cloudy.5 mph88%29.92 "Hg4 mi
3:20 AM48 °FFog.5 mph94%29.92 "HgN/A
2:20 AM48 °FFog.2 mph100%29.92 "HgN/A
1:20 AM46 °FFog.1 mph93%29.92 "HgN/A
12:20 AM48 °FFog.1 mph94%29.92 "HgN/A
11:20 PM
Thu, Sep 3
48 °FFog.2 mph100%29.92 "HgN/A
10:20 PM52 °FFog.2 mph94%29.92 "HgN/A
9:20 PM55 °FPassing clouds.5 mph88%29.92 "HgN/A
8:20 PM54 °FScattered showers. Broken clouds.3 mph94%29.89 "HgN/A
7:20 PM59 °FPassing clouds.2 mph82%29.89 "HgN/A
6:20 PM63 °FPassing clouds.3 mph59%29.89 "HgN/A
5:20 PM63 °FPassing clouds.6 mph64%29.89 "HgN/A
4:20 PM63 °FScattered clouds.6 mph68%29.92 "HgN/A
3:20 PM61 °FScattered clouds.5 mph72%29.92 "HgN/A
2:20 PM59 °FSprinkles. Broken clouds.3 mph77%29.92 "HgN/A
1:20 PM59 °FScattered clouds.5 mph72%29.95 "HgN/A
Weather by CustomWeather, © 2015

See weather overviewHow to use our weather pages